Weather History for Chievres, Belgium

Change the Weather History Date:

Saturday, August 17, 2013

  Actual Average Record
Temperature  
Mean Temperature 69 °F -  
Max Temperature 77 °F 65 °F 85 °F (2012)
Min Temperature 61 °F 53 °F 48 °F (1998)
Cooling Degree Days 4    
Growing Degree Days 19 (Base 50)    
Moisture  
Dew Point 58 °F    
Average Humidity 75    
Maximum Humidity 94    
Minimum Humidity 43    
Precipitation  
Precipitation 0.00 in - - ()
Sea Level Pressure  
Sea Level Pressure 30.00 in    
Wind  
Wind Speed 7 mph ()    
Max Wind Speed 16 mph    
Max Gust Speed -    
Visibility 7.1 miles    
Events Rain    
Averages and records for this station are not official NWS values.
T = Trace of Precipitation, MM = Missing Value Source: Averaged Metar Reports

Daily Weather History Graph

Daily Weather History Graph

Search for Another Location

Airport:

Trip Planner

Search our weather history database for the weather conditions in past years. The results will help you decide how hot, cold, wet, or windy it might be!

Date:

Astronomy

Aug. 17, 2013 Rise Set
Actual Time 6:35 AM CEST 9:00 PM CEST
Civil Twilight 5:59 AM CEST 9:36 PM CEST
Nautical Twilight 5:13 AM CEST 10:22 PM CEST
Astronomical Twilight 4:20 AM CEST 11:15 PM CEST
Moon 6:13 PM CEST (8/17) 2:09 AM CEST (8/17)
Length of Visible Light 15h 36m
Length of Day
14h 24m
Waxing Gibbous, 82% of the Moon is Illuminated
Aug 17
Waxing Gibbous
Aug 21
Full
Aug 28
Last Quarter
Sep 5
New
Sep 12
First Quarter

Hourly Weather History & Observations

Time (CEST) Temp. Dew Point Humidity Pressure Visibility Wind Dir Wind Speed Gust Speed Precip Events Conditions
12:25 AM 60.8 °F 59.0 °F 94% 30.04 in 6.2 mi SSW 4.6 mph - N/A   Mostly Cloudy
1:25 AM 60.8 °F 59.0 °F 94% 30.04 in 6.2 mi SW 4.6 mph - N/A   Mostly Cloudy
2:00 AM 61 °F 59 °F 90% 30.06 in 19 mi WSW 4.5 mph - - Rain Light Rain
2:04 AM 62.6 °F 59.0 °F 88% 30.04 in 6.2 mi WSW 4.6 mph - N/A   Mostly Cloudy
2:25 AM 60.8 °F 59.0 °F 94% 30.04 in 6.2 mi SSW 4.6 mph - N/A   Mostly Cloudy
3:04 AM 62.6 °F 60.8 °F 94% 30.04 in 6.2 mi SSW 3.5 mph - N/A   Overcast
3:25 AM 62.6 °F 60.8 °F 94% 30.04 in 6.2 mi SSW 4.6 mph - N/A   Mostly Cloudy
4:25 AM 62.6 °F 60.8 °F 94% 30.01 in 6.2 mi SSW 5.8 mph - N/A   Mostly Cloudy
5:00 AM 62 °F 60 °F 89% 30.03 in 22 mi SSW 4.5 mph - -   Clear
5:25 AM 62.6 °F 59.0 °F 88% 30.01 in 6.2 mi SSW 6.9 mph - N/A   Mostly Cloudy
5:48 AM 62.6 °F 59.0 °F 88% 30.01 in 6.2 mi SSW 8.1 mph - N/A   Mostly Cloudy
5:51 AM 62.6 °F 59.0 °F 88% 30.01 in 6.2 mi SSW 8.1 mph - N/A   Mostly Cloudy
6:07 AM 62.6 °F 59.0 °F 88% 30.01 in 6.2 mi SSW 6.9 mph - N/A   Mostly Cloudy
6:25 AM 62.6 °F 59.0 °F 88% 30.01 in 6.2 mi SSW 5.8 mph - N/A   Mostly Cloudy
7:21 AM 62.6 °F 59.0 °F 88% 30.01 in 6.2 mi SSW 6.9 mph - N/A   Mostly Cloudy
7:25 AM 62.6 °F 59.0 °F 88% 30.01 in 6.2 mi SSW 6.9 mph - N/A   Mostly Cloudy
7:47 AM 62.6 °F 60.8 °F 94% 30.01 in 6.2 mi SSW 5.8 mph - N/A   Mostly Cloudy
8:00 AM 63 °F 60 °F 85% 30.04 in 19 mi SSW 6.7 mph - -   Clear
8:25 AM 64.4 °F 59.0 °F 83% 30.01 in 6.2 mi SW 9.2 mph - N/A   Scattered Clouds
9:07 AM 66.2 °F 60.8 °F 83% 30.04 in 6.2 mi WSW 8.1 mph - N/A   Mostly Cloudy
9:25 AM 64.4 °F 59.0 °F 83% 30.04 in 6.2 mi WSW 9.2 mph - N/A   Mostly Cloudy
10:14 AM 66.2 °F 59.0 °F 78% 30.01 in 6.2 mi SW 10.4 mph - N/A   Partly Cloudy
10:25 AM 68.0 °F 59.0 °F 73% 30.01 in 6.2 mi SSW 12.7 mph - N/A   Scattered Clouds
10:57 AM 66.2 °F 57.2 °F 73% 30.01 in 6.2 mi SW 13.8 mph - N/A   Mostly Cloudy
11:00 AM 66 °F 56 °F 63% 30.03 in 25 mi SW 13.4 mph - -   Scattered Clouds
11:17 AM 66.2 °F 55.4 °F 68% 30.01 in 6.2 mi SW 12.7 mph - N/A   Mostly Cloudy
11:25 AM 66.2 °F 55.4 °F 68% 30.01 in 6.2 mi SW 13.8 mph - N/A   Scattered Clouds
12:25 PM 69.8 °F 55.4 °F 60% 30.01 in 6.2 mi SW 15.0 mph - N/A   Unknown
1:25 PM 73.4 °F 57.2 °F 57% 30.01 in 6.2 mi SW 13.8 mph - N/A   Mostly Cloudy
2:00 PM 73 °F 56 °F 45% 30.00 in 16 mi SW 13.4 mph - -   Scattered Clouds
2:25 PM 75.2 °F 57.2 °F 53% 30.01 in 6.2 mi SW 13.8 mph - N/A   Partly Cloudy
3:25 PM 75.2 °F 57.2 °F 53% 29.98 in 6.2 mi SW 12.7 mph - N/A   Scattered Clouds
4:25 PM 75.2 °F 55.4 °F 50% 29.95 in 6.2 mi SSW 13.8 mph - N/A   Partly Cloudy
5:00 PM 75 °F 57 °F 43% 29.95 in 28 mi SW 13.4 mph - -   Scattered Clouds
5:25 PM 77.0 °F 57.2 °F 50% 29.92 in 6.2 mi SSW 16.1 mph - N/A   Partly Cloudy
6:25 PM 73.4 °F 57.2 °F 57% 29.92 in 6.2 mi SSW 11.5 mph - N/A   Partly Cloudy
7:25 PM 73.4 °F 57.2 °F 57% 29.92 in 6.2 mi SSW 11.5 mph - N/A   Mostly Cloudy
8:00 PM 73 °F 57 °F 48% 29.91 in 28 mi South 8.9 mph - -   Partly Cloudy
8:25 PM 71.6 °F 57.2 °F 60% 29.92 in 6.2 mi SSW 8.1 mph - N/A   Mostly Cloudy
9:25 PM 71.6 °F 55.4 °F 57% 29.92 in 6.2 mi SSW 9.2 mph - N/A   Mostly Cloudy
10:25 PM 68.0 °F 59.0 °F 73% 29.92 in 6.2 mi WNW 9.2 mph - N/A   Mostly Cloudy
11:00 PM 66 °F 59 °F 70% 29.92 in 28 mi WNW 4.5 mph - -   Clear
11:25 PM 64.4 °F 59.0 °F 83% 29.92 in 6.2 mi Variable 1.2 mph - N/A   Mostly Cloudy